Regional Weather Roundup
Issued by NWS

Home | Current Version | Previous Version | Graphics & Text | Print | Product List | Glossary On
Versions: 1 2 3 4 5 6 7 8 9 10 11 12 13 14 15 16 17 18 19 20 21 22 23 24 25 26 27 28 29 30 31 32 33 34 35 36 37 38 39 40 41 42 43 44 45 46 47 48 49 50
000
ASUS45 KPSR 251110
RWRAZ

ARIZONA REGIONAL HOURLY WEATHER ROUNDUP
NATIONAL WEATHER SERVICE PHOENIX AZ
400 AM MST SAT APR 25 2015

NOTE: FAIR INDICATES FEW OR NO CLOUDS BELOW 12,000 FEET WITH NO
SIGNIFICANT WEATHER AND/OR OBSTRUCTIONS TO VISIBILITY.

AZZ001>003-036-251200-
NORTHWEST ARIZONA

CITY           SKY/WX    TMP DP  RH WIND       PRES   REMARKS
BULLHEAD CITY  CLEAR     66  41  39 S15       29.79S
KINGMAN        CLEAR     50  38  63 S9        29.85S
$$

AZZ004>008-015-016-018-251200-
NORTH CENTRAL ARIZONA

CITY           SKY/WX    TMP DP  RH WIND       PRES   REMARKS
GRAND CANYON   CLOUDY    42  36  79 S8        29.95F
WILLIAMS       PTCLDY    41  36  81 S14G21    30.02S
PRESCOTT       PTCLDY    48  39  71 S12       29.94S
FLAGSTAFF      CLOUDY    40  39  97 SW12      29.97S WCI  33
PAYSON         CLOUDY    46  41  81 CALM      29.98F
PAGE           LGT RAIN  56  40  55 NW10G18   29.85R
$$

AZZ009>014-017-251200-
NORTHEAST ARIZONA

CITY           SKY/WX    TMP DP  RH WIND       PRES   REMARKS
WINSLOW        MOCLDY    50  38  63 S10       29.93R
SAINT JOHNS    CLOUDY    41  33  73 SW3       29.97S
WINDOW ROCK    CLOUDY    40  35  83 S6        29.98F
SHOW LOW       MOCLDY    39  34  81 S5        30.00F
$$

AZZ023-251200-
GREATER PHOENIX AREA

CITY           SKY/WX    TMP DP  RH WIND       PRES   REMARKS
PHOENIX        PTCLDY    64  41  42 E6        29.87S
BUCKEYE          N/A     59  48  67 S3        29.89R
LUKE AFB       PTCLDY    63  48  58 S7        29.86S
DEER VALLEY    CLEAR     61  47  59 SE5       29.88S
SCOTTSDALE     PTCLDY    63  45  51 SE5       29.90S
MESA-GATEWAY   CLEAR     55  39  54 E8        29.91S
$$

AZZ027-028-251200-
SOUTHWEST MARICOPA COUNTY AND PINAL COUNTY

CITY           SKY/WX    TMP DP  RH WIND       PRES   REMARKS
CASA GRANDE    CLEAR     57  37  47 CALM      29.89S
GILA BEND      FAIR      58  43  56 SE5       29.87S
$$

AZZ503-504-507>509-251200-
SOUTHEAST ARIZONA

CITY           SKY/WX    TMP DP  RH WIND       PRES   REMARKS
TUCSON         CLEAR     58  34  40 CALM      29.97S
DAVIS-MONTHAN  CLEAR     51  35  55 E2        29.95S
NOGALES        CLEAR     46  35  65 CALM      29.99S
SIERRA VISTA   CLEAR     49  33  52 W2        29.99F
DOUGLAS        CLEAR     50  34  54 CALM      29.99S
SAFFORD        CLEAR     48  35  60 E3        29.93S
$$

AZZ020-021-025-026-031-251200-
SOUTHWEST ARIZONA

CITY           SKY/WX    TMP DP  RH WIND       PRES   REMARKS
YUMA           MOCLDY    63  45  51 N7        29.86S
$$

CAZ031-033-041-043-047-048-061-251200-
SOUTHERN CALIFORNIA

CITY           SKY/WX    TMP DP  RH WIND       PRES   REMARKS
DOWNTOWN L.A.  MOCLDY    57  51  80 CALM      29.97F
L.A. AIRPORT   PTCLDY    57  51  80 W3        29.99S
SAN DIEGO      CLOUDY    62  50  64 S3        30.00F
BURBANK        CLOUDY    57  49  74 CALM      29.97S
ONTARIO        CLOUDY    56  50  80 SW5       29.97S
RIVERSIDE      CLOUDY    56  50  80 W8        29.97F
PALM SPRINGS   CLEAR     64  44  48 VRB6      29.84S
EL CENTRO NAS  CLEAR     63  44  50 W17       29.89R
IMPERIAL       CLEAR     62  46  55 W15       29.86R
BLYTHE         CLEAR     63  48  58 W7        29.83R
NEEDLES        CLEAR     64  36  35 SW8       29.79F
$$

NVZ020-UTZ003-251200-
SOUTHERN NEVADA-UTAH

CITY           SKY/WX    TMP DP  RH WIND       PRES   REMARKS
LAS VEGAS      MOCLDY    60  36  40 S10       29.73S
SALT LAKE CITY MOCLDY    44  39  82 CALM      29.83S
$$

NMZ009-TXZ055-251200-
NEW MEXICO-WEST TEXAS

CITY           SKY/WX    TMP DP  RH WIND       PRES   REMARKS
ALBUQUERQUE    PTCLDY    48  33  56 S7        29.97S
EL PASO        CLEAR     57  30  35 SW6       29.94S
$$


........................KEY........................
SKY/WX - SKY CONDITION/WEATHER
TMP    - TEMPERATURE IN FAHRENHEIT
DP     - DEW POINT IN FAHRENHEIT
RH     - RELATIVE HUMIDITY IN PERCENT
WIND   - DIRECTION AND SPEED IN MILES PER HOUR (MPH)
VRB    - VARIABLE WIND DIRECTION
PRES   - MEAN SEA LEVEL PRESSURE IN INCHES OF MERCURY
         F - FALLING PRESSURE   R - RISING PRESSURE
         S - STEADY PRESSURE
VSB    - VISIBILITY IN MILES
HX     - HEAT INDEX IN FAHRENHEIT
WCI    - WIND CHILL INDEX IN FAHRENHEIT
TC     - TEMPERATURE IN CELSIUS WHICH IS ALSO KNOWN AS
         TEMPERATURE IN CENTIGRADE
AFB    - AIR FORCE BASE
         LUKE AFB IS LUKE AIR FORCE BASE
         DAVIS-MONTHAN IS DAVIS-MONTHAN AIR FORCE BASE
NAS    - NAVAL AIR STATION
         EL CENTRO NAS IS EL CENTRO NAVAL AIR STATION
N/A    - NOT AVAILABLE



USA.gov is the U.S. government's official web portal to all federal, state and local government web resources and services.